Simultaneous Nadir Overpasses (SNOs) Predictions

Prediction of SNOs between METOP-A and NOAA-19 Satellite Orbit:

Table of predicted SNOs for the next 14.0 days since TLE Epoch: 5/17/2013
Index Date (METOP-A) Time (METOP-A) Lat,Lon (METOP-A) SZA (METOP-A ) Date (NOAA-19) Time (NOAA-19) Lat,Lon (NOAA-19) SZA (NOAA-19 ) Distance(km) Time Diff (sec)
1 05/19/2013 11:05:00 74.11, 8.37 54.23 05/19/2013 11:03:54 74.12, 5.28 54.35 93.96 66
2 05/19/2013 11:55:53 -73.53, 174.30 126.33 05/19/2013 11:54:38 -73.54, 173.98 126.29 10.07 75
3 05/19/2013 12:46:35 73.45, -18.56 53.59 05/19/2013 12:45:45 73.46, -18.61 53.62 2.06 50
4 05/19/2013 13:37:17 -73.41, 148.69 126.45 05/19/2013 13:36:40 -73.41, 148.76 126.44 2.51 37
5 05/19/2013 14:27:57 73.42, -43.95 53.56 05/19/2013 14:27:49 73.43, -44.06 53.57 3.62 8
6 05/19/2013 15:18:39 -73.39, 123.30 126.49 05/19/2013 15:18:44 -73.39, 123.31 126.49 0.44 5
7 05/19/2013 16:09:20 73.35, -69.45 53.48 05/19/2013 16:09:52 73.35, -69.40 53.47 1.61 32
8 05/19/2013 17:00:01 -73.37, 97.91 126.52 05/19/2013 17:00:48 -73.36, 97.86 126.53 2.02 47
9 05/19/2013 17:50:42 73.33, -94.84 53.44 05/19/2013 17:51:56 73.32, -94.85 53.43 1.09 74
10 05/19/2013 18:41:34 -72.79, 71.33 127.06 05/19/2013 18:42:42 -72.83, 73.51 127.11 71.72 68
11 05/29/2013 12:39:33 73.49, -16.68 51.82 05/29/2013 12:38:25 73.49, -16.79 51.84 3.33 68
12 05/29/2013 13:30:15 -73.47, 150.60 128.20 05/29/2013 13:29:22 -73.47, 150.52 128.19 2.45 53
13 05/29/2013 14:20:56 73.42, -42.18 51.75 05/29/2013 14:20:28 73.42, -42.13 51.75 1.92 28
14 05/29/2013 15:11:38 -73.40, 125.10 128.28 05/29/2013 15:11:25 -73.39, 125.18 128.29 2.74 13
15 05/29/2013 16:02:18 73.40, -67.57 51.72 05/29/2013 16:02:32 73.39, -67.58 51.71 1.11 14
16 05/29/2013 16:53:00 -73.38, 99.71 128.31 05/29/2013 16:53:29 -73.37, 99.73 128.33 1.28 29
17 05/29/2013 17:43:40 73.38, -92.96 51.69 05/29/2013 17:44:36 73.36, -93.04 51.67 2.89 56
18 05/29/2013 18:34:22 -73.36, 74.32 128.34 05/29/2013 18:35:33 -73.34, 74.27 128.37 2.33 71




NCC Satellite Simultaneous Nadir Overpasses (
